Total_Precipitation_Accumulation
0.00 0.03 0.09 0.21 0.17 0.12 0.19 0.23 0.21 0.20 0.17 0.31 0.44 0.49 0.87 0.83 0.57 0.48 0.46 0.19 0.17 0.13 0.15 0.17 0.07 0.02 0.02
0.00 0.02 0.07 0.12 0.21 0.20 0.14 0.20 0.25 0.28 0.27 0.19 0.20 0.35 0.42 0.68 0.69 0.42 0.37 0.40 0.24 0.17 0.14 0.09 0.09 0.04 0.01
0.01 0.03 0.06 0.10 0.12 0.21 0.25 0.26 0.24 0.29 0.24 0.19 0.15 0.12 0.22 0.42 0.66 0.77 0.42 0.24 0.29 0.28 0.18 0.15 0.10 0.05 0.02
0.01 0.02 0.05 0.07 0.13 0.16 0.25 0.31 0.33 0.29 0.28 0.30 0.21 0.17 0.11 0.17 0.41 0.68 1.00 0.57 0.27 0.26 0.33 0.23 0.12 0.12 0.05
0.01 0.01 0.04 0.05 0.09 0.17 0.28 0.29 0.32 0.31 0.24 0.25 0.32 0.29 0.25 0.18 0.16 0.48 0.77 1.11 0.84 0.38 0.30 0.29 0.25 0.12 0.13
0.01 0.01 0.01 0.05 0.07 0.11 0.23 0.36 0.43 0.62 0.60 0.48 0.54 0.62 0.44 0.38 0.41 0.29 0.53 0.81 1.10 0.99 0.46 0.28 0.23 0.23 0.18
0.09 0.02 0.01 0.02 0.06 0.11 0.14 0.23 0.38 0.55 0.74 0.66 0.56 0.52 0.47 0.35 0.39 0.36 0.21 0.36 0.60 0.77 0.82 0.50 0.28 0.24 0.18
0.11 0.08 0.05 0.04 0.06 0.10 0.18 0.17 0.16 0.34 0.54 0.51 0.52 0.42 0.34 0.38 0.37 0.27 0.25 0.14 0.18 0.32 0.50 0.59 0.34 0.24 0.24
0.00 0.01 0.00 0.01 0.02 0.05 0.13 0.19 0.12 0.16 0.44 0.41 0.37 0.43 0.33 0.26 0.29 0.24 0.15 0.14 0.12 0.12 0.24 0.33 0.43 0.32 0.24
0.00 0.00 0.01 0.02 0.04 0.06 0.11 0.20 0.19 0.19 0.35 0.52 0.47 0.66 0.62 0.46 0.41 0.34 0.22 0.20 0.20 0.19 0.16 0.22 0.26 0.53 0.67
0.01 0.00 0.00 0.00 0.00 0.00 0.02 0.09 0.12 0.21 0.27 0.55 0.57 0.80 0.69 0.67 0.60 0.52 0.57 0.65 0.65 0.62 0.51 0.31 0.23 0.31 0.75
0.04 0.02 0.01 0.01 0.00 0.00 0.01 0.03 0.07 0.09 0.17 0.46 0.46 0.55 0.80 0.64 0.62 0.54 0.55 0.59 0.67 0.73 0.60 0.61 0.50 0.34 0.35
0.16 0.05 0.02 0.01 0.02 0.02 0.02 0.02 0.05 0.06 0.14 0.38 0.37 0.45 0.65 0.62 0.56 0.53 0.63 0.61 0.51 0.61 0.69 0.55 0.57 0.56 0.69
0.08 0.06 0.04 0.03 0.02 0.02 0.02 0.03 0.11 0.06 0.04 0.16 0.25 0.40 0.59 0.52 0.50 0.50 0.57 0.69 0.53 0.53 0.62 0.70 0.50 0.34 0.44
0.16 0.11 0.08 0.08 0.05 0.01 0.01 0.01 0.03 0.02 0.01 0.03 0.11 0.20 0.37 0.45 0.49 0.38 0.49 0.60 0.52 0.53 0.62 0.58 0.62 0.41 0.27
0.06 0.09 0.11 0.12 0.14 0.13 0.11 0.09 0.08 0.04 0.02 0.02 0.06 0.11 0.21 0.30 0.34 0.25 0.30 0.38 0.48 0.67 0.65 0.67 0.49 0.41 0.33
0.03 0.02 0.02 0.02 0.03 0.05 0.05 0.07 0.05 0.02 0.01 0.01 0.05 0.12 0.13 0.16 0.13 0.14 0.22 0.28 0.46 0.69 0.79 0.76 0.51 0.31 0.32